Wind_Speed
19 19 19 20 20 20 19 19 19 20 20 20 19 18 18 18 18 18 18 17 16 15 14 14 13 13 14 14 14 13 12 11 11 10 10 10 10 10 11 11 12 13 13 13 13 13 13 13 14 14 13 13 13 12 11 11 11 12 12 12 13 15 16 17 18 19 18 17 16 16 17 15 15 16 16 18 20 20 20 21 22 24 24 24 24
21 20 19 20 21 21 21 20 19 19 20 20 20 20 19 19 19 19 19 18 18 17 15 15 14 14 15 15 15 14 14 13 12 11 11 11 11 11 10 10 11 12 13 13 13 13 12 12 13 14 14 13 13 13 12 11 11 12 13 13 13 14 15 16 18 19 19 18 17 16 16 16 17 17 18 19 20 21 22 22 23 24 25 26 27
23 22 20 20 21 21 22 22 21 20 20 20 21 21 21 20 20 20 20 19 19 19 18 16 16 16 16 16 16 15 15 14 13 13 12 12 11 11 11 10 10 11 12 13 13 13 13 13 13 14 14 14 13 13 13 13 12 12 13 14 14 14 15 16 17 18 19 19 18 17 17 17 18 18 19 21 21 22 23 23 24 24 24 25 27
24 24 22 21 21 21 22 22 22 22 21 20 20 20 21 21 21 21 21 21 20 20 19 19 18 17 17 17 17 16 16 15 15 14 13 12 12 12 12 11 11 11 12 12 13 13 13 13 13 13 13 14 14 14 14 14 14 13 14 15 14 14 15 15 16 18 19 19 19 19 19 19 19 20 20 22 23 23 24 24 25 25 24 25 27
26 26 24 23 22 21 22 22 22 23 22 21 20 20 20 21 21 22 22 22 22 21 20 20 19 19 18 18 18 17 17 17 16 16 15 14 14 13 13 13 12 12 12 12 13 13 13 13 13 13 13 13 14 14 14 15 15 15 15 15 15 15 15 16 16 17 18 19 19 19 19 20 20 20 21 22 23 24 26 26 26 26 25 24 26
25 25 24 25 25 23 23 23 22 23 23 22 22 21 21 22 22 22 22 23 24 23 22 21 21 20 19 19 19 18 18 18 18 17 17 16 16 15 15 14 14 13 13 13 13 13 13 13 13 13 13 13 14 14 14 15 15 16 16 16 16 16 16 16 16 17 18 19 19 19 20 20 21 22 22 23 24 25 26 27 27 27 26 25 26
21 20 21 25 26 25 24 24 23 23 23 23 23 23 23 23 23 23 22 23 24 25 24 23 22 21 20 20 20 20 20 20 19 19 19 18 18 17 16 15 15 15 14 14 14 14 14 14 14 14 14 14 14 15 15 15 16 16 16 16 17 17 17 17 17 18 19 19 20 20 21 21 22 23 24 24 24 24 26 26 26 26 27 27 26
23 23 23 25 27 27 26 26 26 25 24 24 24 24 24 24 25 25 24 23 24 25 26 25 24 23 22 22 22 21 21 21 21 21 21 21 20 19 18 17 17 16 16 16 16 16 16 15 15 15 14 15 15 15 16 16 16 17 17 17 18 18 18 18 19 19 20 20 21 21 22 22 22 23 24 25 25 25 26 27 28 27 26 27 27
26 26 26 27 27 28 29 28 29 28 27 27 26 25 25 25 26 27 26 25 25 25 26 27 26 25 25 24 24 24 24 23 23 22 21 21 21 21 20 19 19 18 18 18 18 18 17 17 17 17 16 16 16 16 17 17 17 17 17 18 19 19 19 19 20 21 20 21 21 21 22 22 22 22 23 23 25 26 27 27 26 26 27 27 27
25 27 28 28 27 29 32 32 31 30 29 29 28 28 28 27 26 27 27 27 27 27 27 27 28 27 26 26 26 26 26 25 24 23 22 21 21 21 21 21 21 21 20 20 20 19 19 19 19 19 19 18 18 18 18 18 17 17 18 18 19 19 20 20 21 21 21 21 21 22 22 22 22 22 22 23 26 28 30 29 27 26 27 27 26
25 26 29 31 30 32 34 34 32 31 30 30 30 29 30 30 29 29 28 28 28 28 28 28 29 29 28 27 27 28 28 27 26 24 22 22 21 21 22 22 22 22 22 22 22 21 21 21 21 21 21 20 20 19 19 19 18 18 19 19 19 20 20 21 22 22 22 22 22 22 23 23 22 22 22 23 26 29 30 31 30 28 28 27 25
25 26 29 32 33 34 35 36 35 32 31 31 31 31 31 31 32 32 31 30 30 29 29 30 30 31 31 30 29 29 29 28 27 26 24 24 24 23 24 23 23 23 24 24 24 23 23 23 22 23 23 22 21 21 21 21 20 20 20 20 21 21 21 22 22 22 22 23 23 23 23 23 23 23 23 24 26 27 28 29 29 29 28 27 26
27 28 28 29 31 31 32 35 37 35 33 32 32 32 32 33 33 33 33 33 33 32 32 32 31 31 31 32 32 30 29 29 29 28 26 25 26 26 26 26 26 25 25 25 25 25 25 25 25 24 24 24 23 23 23 23 22 21 22 22 23 22 22 22 22 23 23 23 23 23 23 23 24 24 25 26 27 26 26 26 27 27 27 26 25
28 29 30 29 30 29 28 31 36 37 36 35 35 34 34 34 33 33 33 33 34 34 34 34 34 33 33 33 33 32 31 30 30 29 27 27 27 28 29 29 29 28 28 27 27 27 27 27 27 26 26 26 25 24 23 23 23 23 23 24 24 24 23 23 23 24 25 25 24 24 23 24 25 25 25 26 26 25 25 25 26 26 26 24 23
27 29 31 32 32 31 28 29 33 36 37 38 38 38 37 36 35 35 34 35 35 34 34 34 35 35 35 35 35 34 33 32 31 29 27 27 27 28 30 31 32 32 31 30 30 29 28 28 28 28 27 27 27 26 24 23 24 25 25 25 25 25 25 24 24 25 25 25 25 24 24 24 24 24 25 25 25 25 24 25 25 25 25 24 23
22 25 29 32 34 34 31 28 31 34 36 37 38 39 39 39 39 39 39 38 38 37 36 35 35 35 35 35 36 36 35 34 33 31 28 27 28 29 31 32 33 34 34 33 32 31 31 30 29 29 29 28 29 28 26 24 24 25 26 26 26 25 25 24 24 24 25 25 24 23 23 23 24 24 24 24 25 25 25 25 24 24 25 25 23
17 20 24 29 34 37 36 33 32 32 33 35 37 38 38 38 39 40 40 41 41 41 39 38 38 38 36 35 35 36 36 35 35 34 32 30 30 30 32 33 34 35 35 35 34 33 33 32 31 31 30 29 29 29 28 27 26 26 26 26 26 26 25 24 23 23 23 23 24 23 23 23 24 25 25 24 24 25 26 26 24 23 25 26 24
14 15 19 23 28 34 37 37 36 33 32 33 34 37 38 37 38 39 39 40 40 40 39 39 39 39 38 37 36 36 34 35 36 35 34 33 33 33 34 34 36 36 37 36 36 35 34 34 33 32 32 30 29 29 29 29 29 28 28 27 27 25 24 23 23 23 22 22 23 24 24 24 24 24 25 26 25 25 26 26 24 24 25 26 25
13 13 15 18 21 25 30 34 35 35 35 33 33 35 37 37 38 39 40 39 40 39 39 40 39 38 36 37 38 37 35 35 36 37 35 34 34 35 36 37 38 39 39 38 38 38 37 35 34 34 32 31 30 30 29 29 30 30 29 29 28 26 23 23 23 24 24 24 23 24 25 25 26 26 26 26 26 25 26 25 24 25 26 26 25
15 14 14 16 18 21 25 28 31 33 36 36 34 34 36 37 37 39 40 40 40 40 40 41 41 39 37 36 37 37 36 37 38 37 35 35 35 35 36 38 40 41 41 41 40 40 39 37 36 35 33 32 32 31 31 30 30 30 31 31 29 25 24 25 25 25 26 26 26 26 25 26 27 27 27 27 26 25 25 24 24 25 25 26 26
17 17 16 16 18 19 22 25 28 31 35 36 37 38 39 38 37 37 38 39 40 40 40 41 41 40 38 36 36 36 36 37 36 34 33 34 35 35 36 38 40 41 42 43 43 42 41 40 38 37 35 33 32 32 33 32 31 31 32 31 28 26 26 28 28 27 27 27 27 28 28 27 26 26 26 26 26 25 24 23 23 24 25 26 26
19 19 19 19 19 19 21 22 24 27 30 32 33 36 38 38 37 37 37 39 40 40 40 40 40 39 38 37 37 36 35 35 35 34 33 34 35 36 36 37 39 40 42 44 44 44 43 42 41 39 37 35 33 33 34 34 33 33 33 31 29 29 29 30 30 31 31 30 29 30 30 29 28 26 25 24 24 24 24 23 24 25 26 26 26
21 21 21 21 21 21 21 22 23 25 27 29 29 31 32 33 35 37 39 40 40 40 41 40 39 38 37 37 35 34 33 34 35 34 33 33 35 37 37 38 39 40 42 44 45 44 44 44 43 41 39 36 34 34 34 35 35 35 34 32 30 31 31 32 33 33 33 33 33 32 31 30 28 27 26 25 24 24 25 25 26 26 25 24 25
24 24 23 22 22 22 23 24 24 25 26 27 27 28 29 29 30 34 39 41 42 41 41 41 40 38 36 35 33 31 31 32 34 33 32 31 31 32 35 40 41 41 42 43 44 44 44 43 43 43 42 39 36 34 35 35 35 35 34 32 32 32 34 35 35 35 35 35 35 34 32 30 29 28 27 26 25 26 26 26 27 27 28 28 27
28 27 26 25 24 24 24 24 25 26 27 27 26 26 27 27 27 29 33 38 41 42 41 40 40 39 36 34 33 31 30 29 29 30 31 31 30 29 30 34 38 42 44 44 44 43 42 42 42 42 42 41 38 36 35 35 34 34 34 33 34 35 36 36 36 36 36 35 35 34 32 30 28 27 26 26 26 26 26 26 26 27 29 32 32
30 29 29 28 28 27 26 25 25 25 26 27 27 27 27 27 27 27 26 28 33 39 41 41 41 41 39 36 33 31 30 29 27 26 27 29 30 30 30 31 35 38 41 44 45 44 41 40 41 42 43 42 40 37 35 34 34 35 35 35 36 36 36 35 35 35 34 34 33 32 31 29 27 26 25 26 26 26 25 26 27 27 28 30 31
31 31 31 31 30 30 30 29 27 26 26 27 27 27 27 28 27 27 24 22 25 32 38 40 41 40 39 37 34 31 30 30 28 26 25 27 30 31 32 33 35 35 35 39 46 48 44 41 40 41 42 42 41 38 36 35 35 36 36 36 36 35 34 33 33 33 32 31 31 30 29 28 27 26 26 26 26 25 25 26 27 28 29 29 31
32 32 32 32 32 33 33 32 30 29 29 28 28 27 27 28 28 27 25 22 23 27 34 39 40 40 40 38 35 32 31 30 29 28 28 30 32 34 35 35 36 35 33 35 43 48 46 42 39 39 39 41 41 40 37 36 36 36 36 36 35 34 33 32 32 31 30 29 29 28 28 28 27 27 27 26 26 25 25 26 27 28 29 30 32
33 31 31 32 33 34 34 33 32 31 31 31 30 29 28 27 27 27 26 24 23 25 31 38 41 42 41 39 38 37 35 33 30 29 30 33 36 38 38 37 36 35 34 36 41 44 43 40 37 37 39 40 41 41 39 37 37 36 36 36 36 35 34 33 32 31 30 29 29 29 28 28 29 29 29 28 27 27 27 27 28 29 30 31 33
35 32 31 32 34 35 35 34 33 32 31 32 32 31 29 27 27 27 27 26 24 22 26 33 40 44 43 41 39 39 39 36 32 30 31 34 37 39 40 38 37 36 36 38 40 39 36 35 35 36 39 40 41 41 40 38 37 37 37 36 36 36 36 35 34 34 33 32 31 31 31 31 31 31 32 31 30 30 30 30 30 31 32 32 33
37 34 32 33 35 35 35 35 35 33 32 32 33 33 31 29 27 27 27 27 26 24 23 28 37 43 45 44 42 41 40 39 36 33 33 35 37 39 39 38 37 36 35 35 35 32 33 35 37 40 42 41 40 39 38 37 37 37 37 37 36 36 36 36 35 35 35 34 33 33 33 33 33 33 34 34 33 33 32 32 33 34 34 34 34
38 36 35 35 35 35 35 35 36 35 33 32 32 33 33 31 28 27 27 27 27 26 25 27 32 38 43 45 45 44 43 42 39 35 34 35 36 36 36 37 36 35 34 34 32 30 33 39 41 43 45 43 40 37 34 34 35 37 38 38 38 37 36 36 36 36 36 36 36 35 34 34 34 35 35 35 35 35 34 34 35 35 36 36 36
39 37 36 36 36 37 36 36 36 36 35 33 32 33 34 33 31 29 27 26 27 28 27 27 30 34 39 43 46 46 46 45 42 39 36 35 35 35 34 34 33 32 33 33 30 29 35 39 40 40 43 42 39 36 33 32 34 35 35 37 38 38 38 37 37 38 38 37 37 37 37 37 37 37 36 36 36 36 36 36 36 36 36 36 35
38 38 37 37 37 38 38 38 37 38 37 35 34 33 34 34 34 31 29 27 28 29 29 29 30 33 37 42 45 46 47 47 45 43 40 38 37 37 36 35 33 31 33 33 30 32 39 42 39 37 38 38 35 32 31 32 34 34 34 34 34 35 36 36 36 37 37 37 36 37 37 38 37 37 37 37 38 38 38 38 38 38 38 38 37
38 38 38 38 38 39 39 40 40 40 39 38 36 35 34 34 34 34 32 30 29 30 31 31 32 33 36 40 44 46 48 49 48 45 43 42 41 40 40 39 37 35 37 38 38 39 43 42 38 36 36 35 32 30 30 31 32 33 33 32 31 30 30 30 32 34 35 36 36 36 36 36 36 36 36 37 38 39 39 40 40 40 40 41 41
38 37 37 37 39 40 40 41 41 42 41 40 38 37 36 35 35 35 34 32 31 31 32 33 34 34 36 40 43 45 47 49 50 48 46 45 44 43 43 42 41 40 41 42 42 42 42 39 36 35 35 34 33 31 31 30 30 31 32 32 31 30 29 28 29 31 32 35 36 36 35 35 35 35 36 36 38 39 40 40 40 40 41 42 42
38 37 36 37 39 40 40 41 43 44 43 42 41 40 38 36 35 36 36 35 34 33 33 34 35 36 38 41 44 45 45 47 49 50 48 47 45 44 43 43 43 43 43 43 42 42 41 38 36 34 33 33 33 32 31 30 30 30 32 32 33 32 31 30 31 31 31 33 34 34 35 35 35 35 37 37 38 39 39 39 39 40 42 45 45
39 39 38 38 38 39 40 41 43 45 45 44 43 43 41 39 37 36 37 37 36 35 36 36 36 37 39 41 42 44 45 46 47 49 48 47 46 44 42 42 43 42 41 41 41 40 39 37 35 33 32 32 32 31 31 31 31 31 32 33 33 32 32 32 32 32 32 33 33 33 33 33 34 35 36 37 39 39 39 39 40 39 40 43 45
39 39 39 39 38 38 38 40 42 44 45 45 45 45 44 43 40 38 37 38 38 37 36 37 37 38 40 40 39 41 45 47 48 48 46 45 45 44 43 42 42 42 41 40 40 40 39 37 35 34 33 33 33 32 32 31 32 32 34 34 34 33 33 32 32 32 33 33 33 33 33 33 34 34 34 35 37 38 38 38 38 37 36 38 41
39 39 39 39 38 38 38 39 41 43 45 45 45 45 45 45 44 41 39 39 40 40 38 37 37 39 41 41 39 39 43 47 49 49 47 44 44 43 43 42 41 41 41 41 40 40 40 39 37 35 34 34 35 35 34 34 34 34 35 36 37 36 35 34 34 34 34 35 35 35 36 36 36 36 36 38 40 41 41 40 40 40 40 41 41
39 38 38 37 37 37 37 38 39 41 44 44 44 45 45 45 45 44 42 40 40 41 42 40 38 38 40 41 41 40 40 44 47 49 49 48 47 45 42 40 39 40 41 42 42 42 42 40 38 35 33 33 33 34 34 34 35 36 37 38 39 39 38 37 36 37 37 37 38 38 38 38 39 39 40 41 42 43 44 44 44 44 45 45 44
37 37 36 36 35 36 36 36 37 39 41 43 43 44 45 45 45 45 44 42 41 41 42 43 42 40 39 40 41 42 41 41 43 45 47 49 50 49 45 41 39 38 39 41 43 43 42 40 37 34 33 32 32 32 33 33 34 35 36 38 38 38 38 38 39 39 40 40 41 41 41 41 43 43 44 45 45 45 46 47 48 48 49 49 48
35 35 35 35 35 35 35 35 36 37 39 41 42 42 43 43 43 44 44 44 43 42 42 43 44 44 42 40 39 41 42 42 41 42 44 46 47 48 46 42 39 38 39 40 41 42 42 40 37 36 35 34 33 34 34 35 35 36 36 37 37 36 36 37 38 39 40 42 43 43 43 44 46 47 47 48 48 48 49 50 51 52 52 53 52
33 34 34 33 33 33 34 34 35 35 37 40 41 41 41 41 42 42 43 44 44 44 43 42 42 44 46 44 41 40 42 43 42 40 40 42 43 44 42 39 37 38 40 41 41 42 42 41 40 38 38 37 37 37 37 38 38 39 39 39 38 37 37 37 37 37 39 41 42 43 44 45 48 49 49 49 50 51 51 52 54 55 55 56 56
34 34 34 34 33 33 33 33 33 34 36 38 40 41 40 40 40 41 41 42 43 44 44 43 42 42 45 46 45 42 41 43 44 42 39 38 39 42 42 41 39 39 39 40 41 41 42 42 41 40 40 40 40 40 41 42 43 43 44 44 43 43 43 43 42 42 43 43 44 44 45 47 49 50 49 50 52 53 52 52 54 55 55 55 57
33 34 35 36 35 35 35 34 33 33 34 36 38 40 40 39 39 39 39 40 41 42 43 43 43 42 42 44 47 46 44 43 44 45 43 41 40 41 40 40 40 40 40 40 40 41 41 42 42 42 42 42 43 43 44 45 46 46 47 47 47 47 48 48 48 49 49 49 49 48 48 49 50 51 52 53 55 55 53 52 54 55 55 55 56
34 34 34 35 36 36 36 36 35 34 34 35 36 38 39 38 38 38 38 38 39 40 41 42 43 43 42 42 44 46 47 46 45 45 45 46 46 45 42 39 37 39 41 42 42 43 43 42 43 44 44 45 45 45 46 47 48 49 49 49 49 50 50 50 50 52 52 52 53 53 54 55 55 54 55 57 58 57 55 55 55 56 57 57 57
34 34 33 34 35 35 35 36 36 35 35 34 35 36 37 37 37 37 37 37 37 38 39 41 42 42 42 42 42 43 46 48 48 47 46 47 49 50 50 45 39 37 39 42 43 45 46 46 46 46 47 49 49 49 49 50 51 51 51 51 51 51 51 51 52 54 54 53 53 54 55 57 58 57 57 58 59 57 57 57 57 56 57 58 59
32 33 33 33 34 35 35 35 35 35 35 35 35 35 36 36 36 36 36 36 36 36 37 39 40 40 41 41 42 42 43 45 47 48 48 49 49 51 53 51 45 41 40 41 42 44 46 48 50 51 52 52 51 51 51 52 52 53 52 52 52 52 52 52 53 54 54 54 53 53 53 54 56 57 57 58 59 58 57 58 58 57 57 59 60
30 30 31 31 32 33 34 34 34 34 34 34 35 35 35 35 36 36 36 36 35 35 36 37 38 39 39 39 40 41 42 42 44 45 47 49 49 50 52 53 51 47 46 44 42 42 44 46 49 52 53 52 51 51 51 52 52 52 52 51 51 51 51 52 53 54 54 54 54 53 52 52 53 54 55 57 58 58 58 58 58 58 58 59 60
29 30 30 31 31 32 33 34 33 33 33 34 34 35 35 35 35 36 36 35 35 34 35 35 36 37 37 38 39 40 40 41 41 42 44 46 48 49 50 52 54 55 55 53 49 45 43 44 46 49 51 51 51 50 51 51 51 51 51 50 50 49 49 50 51 52 53 53 54 54 53 53 53 53 53 55 56 57 58 58 58 58 58 59 59
Wind_Direction
210 213 214 213 213 211 211 214 215 217 218 218 218 218 217 217 217 218 222 223 223 224 225 226 226 224 224 222 219 218 213 207 206 205 206 210 209 209 212 211 209 210 212 211 212 214 215 214 213 213 215 216 216 216 217 219 222 224 226 230 232 227 222 222 224 226 232 238 242 248 256 265 273 277 283 290 295 299 304 308 312 315 317 318 318
210 212 215 215 214 213 212 212 215 217 220 221 220 221 222 222 221 222 224 225 226 226 226 227 227 225 224 223 222 223 221 216 213 211 210 211 212 213 215 216 213 213 215 216 217 220 222 219 215 216 217 219 220 221 222 223 224 226 227 227 231 233 230 230 231 231 235 240 244 249 257 265 271 276 282 287 292 298 302 306 310 313 318 319 316
214 213 213 217 216 215 216 214 214 217 219 222 223 224 226 226 226 226 226 227 229 228 227 228 228 226 224 223 223 225 226 224 220 219 217 215 214 216 218 219 217 216 217 220 221 223 225 223 219 218 221 223 225 226 227 226 225 227 230 229 229 231 232 233 235 237 240 243 247 252 258 265 271 277 283 287 291 295 298 303 308 311 315 318 315
216 214 212 217 217 215 218 217 216 218 219 221 224 225 228 230 229 228 226 227 230 230 229 228 229 228 227 226 225 226 228 227 226 226 225 224 221 220 221 222 222 221 220 220 222 223 224 225 224 222 224 228 231 232 232 231 229 228 230 232 231 229 231 235 238 241 244 247 250 255 261 267 273 279 283 288 291 295 299 303 307 309 312 316 315
218 216 212 216 220 217 218 219 219 220 220 221 223 223 227 230 231 229 227 228 231 232 232 231 230 229 229 229 229 228 229 229 228 228 228 229 229 227 226 225 224 223 223 222 222 223 224 225 227 228 229 231 234 237 237 235 234 232 231 232 232 232 234 238 242 244 247 250 254 259 265 270 275 280 285 290 293 297 301 304 306 308 310 312 313
215 216 214 215 219 220 219 220 221 222 221 222 224 223 224 229 232 230 228 228 230 233 235 235 234 231 230 231 231 230 230 230 230 228 229 231 231 231 231 230 228 227 226 225 225 226 227 229 231 233 234 235 237 239 240 239 238 236 234 235 236 238 240 242 245 248 249 253 256 260 266 271 276 280 283 288 292 297 300 302 304 306 308 309 310
204 210 218 217 218 221 222 222 222 222 223 223 225 226 225 228 232 233 230 228 230 233 235 237 237 234 232 232 232 232 232 232 232 230 229 230 231 232 233 234 234 232 230 229 229 230 231 233 237 239 239 239 240 242 243 243 242 240 239 239 240 242 244 245 246 249 251 254 258 262 266 271 276 281 285 289 293 297 298 299 301 303 306 307 308
207 205 212 217 219 221 222 223 223 224 224 224 225 227 228 228 231 233 233 231 230 232 234 237 238 237 235 234 234 234 234 234 234 234 232 233 232 233 234 234 234 235 235 234 233 234 235 236 239 241 240 240 241 243 245 245 245 245 244 244 245 246 247 249 250 252 255 258 261 264 268 273 278 283 289 293 296 299 299 301 303 304 306 306 307
217 213 210 212 216 219 220 222 224 225 225 225 225 226 228 229 232 233 233 233 233 232 233 236 238 237 236 235 235 236 236 236 237 236 236 236 237 237 237 236 235 235 236 237 237 238 238 239 241 242 242 242 241 241 245 246 247 247 247 247 248 249 250 252 255 257 260 263 266 270 273 277 282 286 290 294 298 299 299 300 301 303 304 305 307
220 221 218 216 214 215 218 222 224 225 226 226 226 227 228 228 230 233 234 233 234 234 234 235 238 239 238 236 236 237 238 239 239 239 240 240 241 241 241 240 238 238 237 237 238 240 241 241 243 244 244 244 243 243 244 247 248 248 249 250 251 252 253 255 258 262 265 267 270 274 278 282 286 290 294 298 300 301 300 301 302 302 304 305 307
220 221 221 221 217 212 215 221 225 226 227 228 227 227 228 229 229 231 233 233 233 234 234 235 236 239 241 240 238 238 240 241 241 240 241 242 242 243 244 244 242 242 241 240 240 241 242 242 243 245 247 246 245 246 246 248 249 248 250 253 254 254 255 257 260 263 267 271 273 276 279 283 286 289 292 295 295 296 297 299 301 303 304 305 308
225 225 225 225 222 215 212 217 224 227 227 229 230 230 229 230 230 231 232 233 234 234 236 237 237 238 242 243 243 242 242 244 244 243 240 241 242 244 246 247 247 246 245 245 244 243 243 244 244 245 247 247 246 245 246 247 249 249 251 253 255 255 256 258 262 265 267 271 274 276 278 282 286 289 290 290 289 291 293 296 299 302 304 306 310
231 228 229 231 229 224 217 215 219 225 228 229 231 232 232 232 233 234 234 235 236 236 236 238 239 239 240 243 246 247 246 246 247 246 243 241 242 244 246 248 249 249 249 248 248 247 245 245 245 245 247 248 246 244 244 246 248 250 251 252 254 257 258 260 263 266 269 271 273 276 279 282 285 287 288 288 288 289 291 293 295 298 301 305 309
236 231 230 233 233 232 230 222 216 218 224 228 230 232 233 234 235 236 237 237 238 238 238 239 241 241 241 243 245 247 248 249 249 249 247 244 243 244 246 248 249 250 250 250 250 250 249 248 247 247 247 249 249 247 244 244 247 249 251 252 254 256 259 260 262 264 267 270 274 277 280 281 283 284 284 285 287 288 290 291 293 295 300 304 307
241 237 232 232 232 233 237 233 222 217 220 224 227 231 233 235 237 237 237 238 240 241 241 241 241 242 242 244 246 247 248 250 251 250 248 246 245 244 245 247 249 250 250 250 250 251 251 250 250 249 248 248 251 252 248 244 245 248 251 252 254 256 257 259 261 263 266 269 273 277 278 279 280 281 283 284 285 287 288 289 291 295 300 302 303
245 243 236 233 232 233 237 235 227 224 224 224 224 227 228 230 232 233 233 235 237 238 240 242 244 245 245 245 245 247 248 250 252 252 250 247 245 244 245 246 248 250 251 251 251 251 251 251 251 251 251 250 250 253 254 252 249 249 251 252 255 257 258 259 261 263 266 270 272 274 275 277 277 278 280 282 283 286 287 287 292 296 297 299 301
254 249 243 237 234 234 237 236 231 230 230 228 226 227 227 228 229 231 232 233 235 236 236 236 238 241 243 245 247 248 249 249 251 252 252 251 248 246 246 247 249 251 252 253 253 252 252 252 251 251 252 251 250 251 254 256 254 253 253 254 254 256 259 262 263 263 265 268 271 272 271 273 275 277 278 279 279 281 283 286 293 296 296 298 303
272 261 253 246 239 237 236 236 235 235 235 233 232 230 229 232 234 235 236 238 241 244 245 244 242 241 240 241 243 246 249 251 253 252 251 251 251 250 249 249 251 253 254 255 255 255 253 252 252 251 251 252 252 251 252 254 255 256 257 257 258 258 259 262 265 266 266 265 267 270 272 272 272 273 275 277 278 278 280 286 291 292 293 297 300
290 278 267 258 251 246 241 239 239 239 237 238 239 235 230 232 235 237 238 240 243 247 249 250 253 254 251 249 247 246 246 248 252 254 253 252 251 251 251 251 252 254 255 256 256 257 257 255 253 253 252 252 253 253 252 252 253 255 257 259 260 261 262 263 264 266 268 267 264 264 266 269 270 271 272 275 277 279 282 286 289 289 290 292 293
292 291 283 272 263 258 253 249 247 244 240 238 241 240 235 233 233 234 237 240 242 243 245 247 249 252 255 258 259 257 253 251 251 252 253 254 254 254 254 253 253 254 256 257 257 258 258 258 257 255 254 252 253 253 253 252 252 253 255 257 260 264 266 266 264 263 264 266 266 266 264 264 265 268 272 275 278 281 284 286 287 287 287 287 287
284 288 288 282 275 270 264 259 255 253 250 244 240 239 239 239 237 236 238 241 243 245 248 251 252 251 252 254 257 260 262 263 262 258 257 258 258 257 257 256 256 257 257 257 257 258 258 258 258 257 256 253 253 253 254 253 253 252 253 255 259 263 264 264 264 263 262 262 264 267 268 268 267 268 271 274 277 280 283 284 284 282 283 285 286
273 278 282 283 282 280 276 271 265 264 265 261 251 244 243 244 243 242 242 243 243 244 246 250 254 256 256 255 256 257 259 262 264 265 266 266 263 260 258 257 257 258 258 258 257 257 258 258 258 257 257 255 252 252 253 253 252 252 253 254 256 258 260 262 262 263 263 262 262 263 266 269 272 275 277 278 280 281 282 280 277 276 279 284 286
264 268 272 276 280 282 282 282 279 275 276 276 269 260 255 250 246 245 245 245 244 244 246 248 251 252 253 256 260 262 261 259 260 262 265 269 269 265 263 261 259 257 257 257 257 257 258 258 259 258 257 255 253 251 251 251 250 251 252 253 254 255 257 259 259 260 261 262 263 264 266 269 273 277 280 281 283 283 282 281 280 279 279 279 281
258 261 264 267 271 275 280 284 286 285 284 283 280 274 269 263 255 250 248 246 246 246 247 249 251 251 252 254 259 262 263 264 264 263 263 264 266 266 268 269 266 263 261 257 256 257 258 259 260 259 258 256 254 251 249 249 249 250 251 252 252 253 254 255 256 258 260 262 265 267 270 273 274 276 279 280 279 278 277 277 279 281 282 282 280
256 257 259 261 263 266 270 276 281 286 288 289 287 282 277 273 267 262 256 250 248 247 247 249 252 254 255 257 258 258 259 262 266 270 270 267 264 264 270 273 272 272 272 265 257 255 256 256 257 258 258 258 256 252 250 249 249 250 251 251 251 251 253 255 257 260 262 264 267 270 273 276 277 278 278 277 275 274 274 275 276 278 282 285 286
257 257 257 258 259 261 262 265 270 278 284 287 288 288 286 281 276 274 271 261 252 250 249 250 252 254 255 256 257 256 255 256 262 271 278 277 273 271 274 277 275 276 278 273 264 256 253 252 254 256 257 258 257 255 253 250 250 250 249 250 251 252 254 257 260 263 266 268 271 273 275 277 277 276 274 272 272 273 274 276 276 276 277 280 283
256 257 258 259 259 259 260 260 262 267 273 278 283 287 288 287 283 280 276 269 259 255 252 250 250 251 252 252 252 253 254 254 257 265 275 281 282 282 283 284 281 279 280 279 272 264 256 251 251 253 255 256 256 255 254 250 249 249 249 250 253 255 258 260 261 264 267 270 272 274 275 276 275 275 274 274 274 274 274 274 276 277 277 278 280
258 256 258 260 261 261 260 260 260 261 264 269 274 279 283 286 288 286 279 270 261 256 253 251 250 249 248 247 247 248 249 250 252 258 265 272 276 280 284 287 287 284 282 280 276 270 263 259 255 251 252 254 254 252 251 249 249 249 250 252 255 257 259 260 261 263 266 268 271 273 274 275 275 275 275 275 276 275 275 274 275 276 278 279 280
263 259 258 259 262 262 261 261 260 259 260 263 266 270 275 279 284 287 285 278 267 257 252 251 250 250 249 247 245 246 247 247 248 251 256 262 265 268 275 282 284 282 280 280 278 272 267 265 260 252 249 250 250 249 248 247 248 249 250 252 254 256 258 259 260 262 264 265 267 269 270 271 272 272 273 273 274 276 276 276 277 277 277 277 278
266 263 258 256 258 259 260 261 261 259 259 259 261 263 267 271 276 281 284 283 277 265 253 248 248 250 251 249 246 246 247 246 245 243 246 252 257 260 266 272 276 275 275 276 275 272 267 263 255 247 246 249 249 248 247 246 247 248 249 251 254 255 258 260 261 262 263 264 264 266 267 268 269 269 270 271 272 274 275 276 277 278 278 278 279
266 264 260 256 255 256 258 260 260 259 258 257 258 259 260 263 267 272 277 281 281 275 261 250 246 247 249 249 247 246 246 245 243 239 238 244 250 254 259 265 270 272 273 273 273 275 275 270 257 247 247 250 249 246 246 247 248 249 250 252 255 256 258 261 263 264 265 265 265 266 267 268 269 269 270 271 272 272 273 274 275 276 278 280 281
265 264 261 258 256 255 255 257 259 259 258 256 256 257 257 257 259 262 267 274 278 276 268 258 251 248 247 248 247 246 247 246 243 239 237 239 243 247 252 258 265 270 273 273 272 272 273 272 264 254 252 254 252 249 248 250 251 253 254 254 256 258 259 261 263 265 267 268 269 269 270 270 271 271 272 272 273 272 272 272 274 275 276 278 279
265 264 263 260 257 254 253 254 256 258 258 256 254 254 255 255 254 254 258 263 269 272 269 263 257 251 248 247 247 247 246 246 244 241 237 235 236 239 243 249 257 265 268 267 265 261 262 265 264 259 256 258 258 256 254 254 256 258 258 258 259 262 264 265 265 265 266 268 270 271 272 272 272 272 273 274 274 274 274 273 273 274 274 275 277
264 264 263 261 258 255 253 253 254 255 256 256 254 252 253 253 252 251 252 253 258 264 266 263 259 254 250 248 249 249 248 247 246 243 238 234 233 233 236 240 247 255 259 260 262 264 261 260 259 257 258 261 262 260 259 258 259 260 261 261 262 264 266 268 269 268 268 268 268 268 269 270 271 271 272 273 274 274 274 274 273 273 274 276 278
265 264 262 261 259 257 254 252 252 253 254 255 255 254 252 250 250 250 249 248 250 255 258 259 258 256 252 249 250 250 250 249 247 244 241 238 234 233 234 236 240 246 252 255 259 260 257 255 255 255 256 259 260 258 258 258 258 260 262 264 265 265 264 266 267 268 269 269 268 268 269 270 271 273 273 273 274 274 274 275 275 274 274 275 276
267 266 263 260 258 257 256 254 253 253 253 254 255 255 254 251 249 248 247 247 247 248 250 253 254 254 253 251 249 249 250 251 249 245 243 242 239 235 235 236 238 241 245 247 248 249 249 250 252 254 254 257 258 259 258 258 259 260 260 261 262 263 263 263 263 264 266 268 268 269 270 271 272 274 274 274 274 273 274 276 277 277 276 275 274
268 269 266 262 258 257 256 255 254 254 254 254 255 256 256 253 249 247 247 246 246 246 246 248 250 251 252 251 250 249 248 249 250 247 244 244 242 239 237 237 238 239 241 242 243 245 247 248 249 250 252 255 257 258 259 260 260 260 259 259 260 261 261 262 262 263 264 266 268 269 271 272 274 276 277 277 277 276 276 277 276 276 275 275 274
267 268 268 266 263 260 257 256 255 256 256 256 256 257 257 256 253 249 246 246 246 245 245 245 247 249 249 250 252 251 248 247 247 246 245 246 245 242 239 238 239 239 239 240 243 245 245 245 247 248 249 251 253 255 257 257 257 258 259 260 261 261 261 262 263 263 263 265 268 269 270 273 276 276 277 278 279 280 280 279 277 277 275 274 274
266 267 267 267 266 263 259 257 257 257 258 258 258 258 259 259 257 253 249 246 245 245 246 245 245 247 248 249 251 252 250 248 246 245 245 246 246 244 241 240 240 240 239 240 242 243 243 243 244 246 248 249 251 253 254 255 255 256 258 259 259 260 260 261 261 262 262 263 266 268 269 271 272 273 272 274 276 278 279 279 278 277 275 273 273
268 268 268 268 268 265 261 258 257 258 259 260 260 260 260 260 260 258 254 250 247 246 246 246 246 246 248 249 249 250 249 248 247 247 247 248 248 247 245 244 244 242 240 240 240 242 243 243 245 247 248 249 251 252 253 254 255 255 255 256 256 257 258 259 259 260 261 262 265 267 268 269 270 271 272 274 276 277 278 278 278 278 278 279 278
271 270 269 268 268 266 264 261 258 258 260 261 261 261 262 262 261 260 258 256 252 249 247 247 247 247 247 248 248 248 247 246 247 247 248 250 250 248 246 247 246 242 240 240 240 240 242 243 244 245 246 246 248 251 252 253 255 255 255 255 255 254 255 255 257 259 261 262 264 265 267 269 270 271 271 272 274 276 278 279 281 281 282 283 283
274 273 270 268 267 265 264 263 261 260 261 263 263 262 263 263 263 263 261 260 259 255 251 248 247 248 248 248 248 247 246 244 245 246 248 250 252 250 247 247 247 246 244 243 242 242 243 242 240 241 242 244 246 249 250 251 253 253 254 255 256 255 254 255 256 259 261 262 263 264 265 267 268 269 270 271 273 275 277 278 280 281 281 282 282
274 275 272 269 268 267 266 265 263 261 262 263 263 263 263 264 265 265 264 263 262 261 258 254 250 249 249 248 248 248 246 243 243 244 245 247 249 247 244 244 247 250 250 248 245 243 244 243 241 242 246 249 250 252 254 256 257 257 257 258 258 257 257 257 258 259 261 262 263 265 266 267 267 268 270 272 273 274 276 277 278 278 279 280 280
270 272 273 272 270 268 267 267 265 263 262 263 263 263 263 264 265 266 266 265 264 263 262 260 256 253 250 248 248 249 248 244 242 241 242 243 243 242 241 244 248 249 249 248 247 246 245 244 243 244 248 251 253 254 256 259 261 262 263 263 262 261 260 260 259 260 261 262 263 264 265 267 268 268 269 270 271 271 273 274 276 277 277 278 277
268 268 269 270 270 269 268 267 267 265 263 262 263 263 263 263 264 265 266 266 266 265 264 264 263 259 255 251 249 249 249 246 242 240 240 241 241 240 242 247 249 249 248 248 249 248 247 246 245 246 248 251 253 256 258 260 261 262 263 264 263 263 262 261 262 263 263 263 264 264 264 264 265 267 268 268 269 269 270 272 274 276 276 276 276
271 268 266 266 268 268 268 268 268 267 265 263 262 262 263 262 263 264 265 265 266 265 265 265 265 264 262 258 253 250 250 249 246 242 241 241 240 241 243 247 250 251 251 250 250 250 250 249 247 248 249 252 255 257 259 261 262 263 264 264 263 262 262 262 263 263 263 263 264 265 264 264 264 266 267 267 268 269 270 271 272 274 274 275 275
274 271 268 266 266 266 266 266 266 266 266 264 262 262 262 261 262 262 263 264 265 265 266 266 266 265 265 264 260 255 252 251 250 247 244 241 240 241 243 248 253 255 254 253 253 254 255 255 254 253 253 254 256 258 259 261 263 264 265 266 266 264 263 263 263 263 263 263 263 264 264 264 264 265 266 267 268 269 271 270 270 271 273 274 274
274 273 271 269 268 266 265 264 264 263 264 264 263 262 261 260 260 261 262 262 264 265 265 266 266 266 266 266 265 262 257 254 252 250 247 244 242 240 241 244 252 258 258 257 256 257 258 258 259 259 259 259 259 259 260 262 264 266 267 268 268 266 265 264 263 264 265 265 265 264 264 264 265 265 266 267 268 268 269 269 269 270 271 272 273
273 273 272 271 270 269 267 266 264 263 261 261 261 262 261 260 259 259 260 260 262 263 264 265 266 266 267 267 267 266 263 259 255 253 250 248 244 241 239 241 248 257 263 261 259 258 259 259 258 259 261 262 262 262 262 264 265 267 269 269 268 267 267 265 265 265 266 267 267 267 265 265 265 265 266 266 267 267 267 268 270 270 271 272 272
272 273 272 271 271 270 269 268 267 264 261 259 258 259 260 260 259 258 258 259 260 261 263 264 265 265 266 267 267 268 267 264 260 257 254 251 247 243 241 240 242 250 259 262 261 260 261 261 260 260 262 264 264 264 264 265 266 267 268 268 268 268 268 267 266 267 268 268 268 269 268 267 266 266 265 265 266 266 267 267 268 269 270 271 272
270 272 272 272 271 270 269 269 268 267 263 259 256 256 258 258 257 257 257 258 258 259 261 263 264 265 265 266 267 268 268 267 265 262 259 256 251 248 245 242 241 244 251 257 259 260 264 266 265 264 264 264 264 264 264 265 266 267 268 268 269 269 269 269 269 270 271 271 271 271 271 270 269 267 265 264 264 265 266 267 268 269 270 271 272
Height
3207 3209 3211 3212 3214 3215 3217 3218 3219 3221 3222 3224 3225 3227 3228 3229 3230 3231 3232 3233 3234 3236 3237 3237 3238 3239 3240 3241 3241 3242 3242 3243 3244 3244 3245 3246 3246 3247 3247 3248 3248 3249 3250 3250 3251 3252 3253 3254 3254 3255 3256 3257 3258 3258 3259 3260 3261 3261 3262 3262 3263 3263 3264 3265 3265 3266 3266 3267 3268 3269 3269 3269 3269 3269 3269 3269 3268 3268 3268 3267 3266 3265 3264 3263 3262
3204 3206 3209 3211 3212 3214 3215 3216 3218 3219 3221 3222 3224 3225 3227 3228 3229 3230 3231 3232 3233 3234 3235 3236 3237 3238 3239 3239 3240 3241 3242 3242 3243 3243 3244 3245 3245 3246 3246 3247 3247 3248 3249 3249 3250 3251 3252 3252 3253 3254 3255 3256 3256 3257 3258 3259 3259 3260 3260 3261 3261 3262 3263 3263 3264 3265 3266 3266 3267 3267 3267 3268 3268 3268 3268 3268 3268 3267 3267 3267 3266 3265 3263 3261 3260
3203 3204 3206 3208 3210 3212 3213 3214 3216 3217 3219 3220 3222 3223 3225 3226 3227 3229 3230 3231 3232 3233 3234 3235 3236 3237 3237 3238 3239 3240 3240 3241 3242 3242 3243 3244 3244 3245 3245 3246 3246 3247 3248 3248 3249 3250 3250 3251 3252 3253 3254 3254 3255 3256 3256 3257 3258 3258 3259 3259 3260 3260 3261 3262 3263 3263 3264 3265 3266 3266 3266 3266 3267 3267 3267 3267 3266 3266 3266 3265 3265 3264 3263 3262 3259
3200 3201 3203 3206 3208 3210 3212 3213 3214 3215 3217 3218 3220 3222 3223 3224 3226 3227 3228 3229 3230 3231 3232 3233 3234 3235 3236 3237 3238 3238 3239 3240 3241 3241 3242 3242 3243 3244 3244 3245 3245 3246 3246 3247 3248 3249 3249 3250 3251 3251 3252 3253 3254 3254 3255 3256 3256 3257 3258 3258 3258 3259 3260 3260 3261 3262 3263 3264 3264 3265 3265 3265 3265 3265 3265 3265 3265 3264 3264 3264 3263 3262 3262 3261 3258
3198 3198 3200 3203 3205 3207 3210 3211 3212 3214 3215 3217 3218 3220 3221 3222 3223 3225 3226 3227 3228 3229 3230 3231 3232 3233 3234 3235 3236 3237 3238 3238 3239 3240 3240 3241 3242 3242 3243 3244 3244 3245 3245 3246 3247 3248 3248 3249 3249 3250 3251 3252 3252 3253 3254 3254 3255 3255 3256 3257 3257 3258 3258 3259 3260 3261 3261 3262 3263 3263 3263 3264 3264 3264 3264 3263 3263 3263 3262 3261 3261 3260 3260 3259 3258
3195 3196 3198 3200 3202 3205 3207 3209 3211 3212 3213 3215 3216 3217 3219 3220 3221 3222 3224 3225 3226 3227 3228 3229 3230 3232 3233 3234 3234 3235 3236 3237 3237 3238 3239 3240 3240 3241 3241 3242 3243 3243 3244 3245 3246 3246 3247 3248 3248 3248 3249 3250 3251 3251 3252 3253 3253 3254 3255 3255 3256 3256 3257 3258 3259 3259 3260 3261 3261 3262 3262 3262 3262 3262 3262 3262 3262 3261 3261 3260 3259 3258 3257 3257 3256
3190 3192 3195 3197 3199 3202 3204 3206 3208 3210 3211 3213 3214 3215 3217 3218 3219 3220 3221 3223 3224 3225 3226 3227 3228 3230 3231 3232 3232 3233 3234 3235 3236 3236 3237 3238 3238 3239 3240 3241 3241 3242 3243 3244 3244 3245 3246 3246 3247 3247 3248 3249 3249 3250 3250 3251 3252 3252 3253 3254 3255 3255 3256 3257 3258 3258 3259 3259 3260 3260 3260 3260 3260 3260 3260 3260 3260 3259 3259 3258 3257 3256 3255 3254 3254
3189 3190 3192 3194 3195 3198 3201 3202 3205 3207 3208 3210 3212 3213 3214 3215 3216 3217 3219 3220 3221 3223 3224 3225 3226 3228 3229 3230 3230 3231 3232 3233 3233 3234 3235 3236 3237 3238 3238 3239 3240 3240 3241 3242 3242 3243 3244 3244 3245 3245 3246 3247 3248 3248 3249 3249 3250 3251 3251 3252 3253 3254 3255 3255 3256 3257 3257 3258 3258 3258 3259 3259 3259 3259 3258 3257 3257 3257 3256 3255 3254 3253 3253 3252 3251
3189 3189 3190 3190 3192 3195 3197 3199 3201 3203 3204 3206 3208 3210 3212 3213 3214 3215 3216 3217 3219 3220 3221 3223 3224 3225 3226 3227 3228 3229 3230 3230 3231 3232 3233 3234 3235 3236 3237 3237 3238 3239 3239 3240 3240 3241 3242 3242 3243 3243 3244 3245 3246 3246 3247 3247 3248 3249 3250 3250 3251 3252 3253 3253 3254 3255 3255 3256 3256 3256 3257 3257 3257 3257 3256 3256 3255 3254 3253 3252 3252 3251 3250 3249 3248
3187 3188 3189 3189 3190 3192 3194 3195 3197 3199 3200 3202 3204 3206 3208 3210 3211 3212 3213 3214 3216 3217 3218 3220 3221 3222 3223 3225 3226 3226 3227 3228 3229 3231 3232 3233 3234 3234 3235 3235 3236 3237 3237 3238 3238 3239 3240 3240 3241 3241 3242 3243 3244 3244 3245 3246 3247 3247 3248 3248 3249 3250 3251 3251 3252 3253 3253 3254 3254 3254 3254 3255 3255 3255 3254 3254 3252 3251 3250 3249 3249 3248 3247 3246 3246
3184 3185 3186 3188 3188 3188 3190 3192 3194 3195 3197 3199 3200 3202 3204 3206 3208 3209 3210 3212 3213 3214 3215 3216 3218 3219 3220 3221 3223 3224 3225 3226 3227 3229 3230 3231 3232 3233 3233 3233 3234 3234 3235 3236 3236 3237 3238 3238 3239 3239 3240 3240 3241 3242 3243 3243 3244 3245 3246 3246 3247 3248 3249 3249 3250 3250 3251 3251 3251 3252 3252 3252 3253 3253 3253 3252 3251 3249 3247 3246 3245 3245 3244 3243 3243
3182 3183 3184 3187 3187 3186 3186 3188 3190 3192 3193 3195 3197 3199 3200 3202 3203 3205 3207 3208 3210 3211 3212 3214 3215 3216 3217 3218 3219 3221 3222 3223 3225 3227 3228 3230 3230 3231 3231 3232 3232 3232 3233 3233 3234 3235 3235 3236 3236 3237 3237 3238 3239 3240 3240 3241 3242 3243 3244 3244 3245 3245 3246 3247 3247 3248 3248 3248 3249 3249 3249 3250 3250 3250 3250 3249 3248 3247 3246 3244 3243 3242 3241 3240 3240
3181 3182 3184 3187 3188 3186 3185 3185 3186 3188 3190 3191 3193 3194 3196 3198 3200 3202 3204 3205 3207 3208 3210 3211 3212 3213 3215 3216 3217 3218 3219 3221 3222 3224 3226 3227 3228 3229 3229 3229 3230 3230 3231 3231 3231 3232 3233 3233 3234 3234 3235 3235 3236 3237 3238 3239 3239 3240 3241 3241 3242 3243 3244 3244 3245 3245 3245 3246 3246 3246 3247 3247 3247 3247 3247 3246 3245 3244 3243 3243 3242 3240 3239 3239 3238
3179 3181 3183 3186 3187 3187 3186 3184 3182 3183 3185 3187 3188 3190 3192 3193 3196 3198 3200 3202 3203 3205 3207 3208 3209 3211 3212 3213 3214 3215 3217 3218 3219 3221 3223 3225 3226 3227 3227 3227 3227 3228 3228 3229 3229 3229 3230 3231 3231 3232 3233 3233 3233 3234 3235 3236 3237 3237 3238 3238 3239 3240 3241 3241 3242 3242 3243 3243 3243 3243 3244 3244 3244 3243 3243 3242 3242 3241 3241 3240 3239 3238 3238 3237 3236
3176 3178 3180 3182 3184 3185 3186 3184 3181 3180 3180 3182 3184 3186 3188 3190 3193 3195 3196 3198 3200 3202 3204 3205 3206 3208 3209 3211 3212 3213 3214 3215 3216 3218 3220 3222 3223 3224 3225 3225 3225 3225 3225 3226 3226 3227 3227 3228 3228 3229 3230 3231 3231 3231 3232 3233 3234 3234 3235 3235 3236 3237 3237 3238 3239 3239 3240 3240 3240 3240 3240 3241 3241 3240 3240 3239 3238 3238 3238 3237 3237 3236 3235 3235 3234
3174 3175 3177 3179 3180 3182 3183 3183 3181 3179 3178 3178 3179 3180 3183 3185 3188 3190 3192 3193 3195 3197 3199 3202 3204 3205 3207 3208 3209 3210 3212 3213 3214 3216 3218 3220 3221 3221 3222 3222 3222 3222 3222 3223 3224 3225 3225 3225 3226 3226 3227 3228 3228 3229 3229 3230 3231 3231 3232 3232 3233 3233 3234 3234 3236 3236 3236 3236 3236 3237 3237 3237 3237 3237 3237 3236 3235 3235 3235 3234 3234 3234 3233 3232 3232
3171 3172 3173 3175 3176 3177 3178 3179 3178 3177 3176 3175 3176 3177 3179 3181 3184 3186 3187 3190 3191 3191 3192 3194 3197 3199 3202 3204 3206 3208 3209 3211 3212 3213 3215 3217 3218 3219 3219 3219 3219 3219 3220 3221 3221 3222 3222 3223 3223 3224 3224 3225 3226 3226 3226 3227 3227 3228 3228 3229 3229 3230 3230 3231 3232 3232 3233 3233 3233 3233 3234 3234 3234 3233 3233 3233 3233 3233 3232 3231 3232 3232 3230 3228 3229
3168 3169 3170 3171 3172 3173 3173 3174 3174 3173 3172 3171 3172 3174 3178 3181 3184 3185 3187 3190 3192 3192 3193 3194 3195 3197 3198 3199 3201 3203 3205 3208 3210 3211 3213 3214 3215 3216 3217 3217 3217 3217 3217 3218 3218 3219 3219 3220 3221 3221 3221 3222 3223 3223 3224 3224 3224 3224 3224 3225 3225 3226 3227 3228 3228 3228 3229 3230 3230 3230 3230 3231 3231 3231 3230 3230 3231 3230 3229 3229 3230 3229 3227 3226 3226
3166 3167 3167 3168 3169 3169 3170 3170 3170 3169 3168 3168 3169 3172 3176 3178 3180 3182 3184 3186 3189 3190 3191 3193 3196 3197 3198 3198 3198 3198 3200 3203 3205 3206 3209 3212 3213 3214 3214 3214 3215 3215 3215 3216 3216 3216 3217 3218 3218 3219 3219 3220 3220 3220 3221 3221 3221 3221 3221 3221 3221 3222 3224 3225 3225 3225 3225 3225 3226 3226 3226 3227 3227 3227 3227 3227 3228 3227 3227 3227 3227 3226 3225 3224 3224
3164 3165 3165 3166 3166 3166 3166 3166 3166 3164 3164 3164 3167 3170 3173 3173 3174 3177 3180 3182 3185 3186 3187 3188 3190 3193 3195 3197 3198 3198 3199 3200 3200 3201 3204 3207 3209 3211 3211 3211 3212 3212 3213 3213 3213 3214 3214 3215 3215 3216 3217 3218 3218 3217 3218 3218 3219 3219 3218 3218 3218 3219 3221 3221 3221 3222 3222 3221 3221 3222 3222 3223 3223 3223 3224 3224 3224 3224 3224 3224 3224 3223 3222 3221 3221
3161 3162 3162 3163 3163 3163 3162 3162 3162 3161 3160 3161 3163 3166 3169 3170 3172 3175 3178 3180 3182 3184 3185 3185 3186 3189 3191 3193 3194 3196 3198 3200 3201 3202 3203 3204 3205 3206 3207 3208 3209 3209 3210 3210 3210 3211 3211 3212 3212 3213 3214 3215 3215 3215 3214 3215 3215 3215 3214 3214 3215 3217 3217 3217 3217 3217 3218 3218 3218 3218 3218 3219 3219 3220 3221 3221 3221 3221 3221 3221 3221 3220 3218 3218 3218
3159 3159 3159 3159 3160 3160 3160 3160 3159 3158 3157 3158 3161 3163 3165 3168 3172 3175 3177 3178 3179 3180 3181 3182 3184 3186 3189 3189 3190 3192 3194 3196 3198 3201 3202 3203 3203 3203 3203 3204 3205 3206 3206 3206 3206 3207 3208 3208 3209 3210 3211 3212 3213 3212 3212 3212 3212 3211 3211 3212 3213 3213 3213 3212 3213 3213 3213 3213 3214 3214 3214 3215 3215 3216 3217 3218 3218 3218 3217 3217 3217 3216 3216 3215 3214
3156 3156 3156 3156 3157 3157 3157 3157 3157 3156 3155 3155 3158 3160 3162 3165 3169 3172 3174 3174 3175 3176 3177 3178 3179 3181 3183 3185 3187 3189 3191 3192 3193 3194 3196 3198 3199 3200 3201 3201 3202 3202 3202 3201 3202 3204 3205 3205 3206 3207 3207 3208 3209 3209 3209 3208 3208 3207 3208 3209 3209 3209 3209 3208 3208 3208 3208 3209 3209 3209 3211 3212 3213 3213 3214 3214 3215 3214 3214 3213 3212 3212 3212 3212 3212
3153 3153 3153 3154 3154 3154 3154 3154 3154 3154 3153 3153 3155 3157 3159 3162 3165 3168 3169 3171 3172 3173 3174 3175 3176 3177 3178 3180 3182 3185 3186 3187 3188 3189 3190 3191 3193 3196 3198 3198 3199 3200 3199 3198 3198 3199 3201 3202 3203 3203 3203 3204 3205 3206 3205 3204 3204 3204 3204 3205 3205 3204 3203 3203 3203 3203 3203 3204 3204 3205 3206 3208 3209 3210 3210 3211 3211 3211 3211 3210 3209 3208 3207 3207 3208
3149 3150 3150 3150 3151 3151 3152 3152 3152 3151 3151 3151 3152 3154 3155 3157 3160 3162 3164 3168 3169 3170 3171 3172 3173 3173 3175 3176 3178 3180 3182 3182 3183 3185 3185 3186 3187 3190 3192 3193 3195 3197 3198 3197 3195 3194 3195 3198 3199 3199 3199 3199 3200 3201 3201 3201 3201 3201 3201 3201 3200 3199 3198 3198 3198 3198 3199 3199 3200 3201 3202 3204 3205 3206 3207 3207 3207 3207 3207 3207 3207 3206 3204 3203 3202
3145 3145 3146 3147 3147 3148 3148 3149 3149 3149 3149 3148 3149 3151 3152 3153 3155 3156 3159 3162 3165 3166 3166 3168 3168 3169 3171 3172 3173 3175 3177 3178 3179 3180 3181 3182 3183 3184 3186 3186 3188 3190 3192 3194 3193 3190 3189 3190 3192 3194 3194 3195 3196 3197 3197 3198 3197 3197 3196 3196 3195 3194 3194 3194 3194 3194 3194 3195 3196 3197 3198 3199 3200 3201 3202 3202 3202 3203 3203 3203 3203 3203 3202 3201 3199
3140 3141 3142 3143 3143 3144 3144 3145 3146 3147 3147 3146 3147 3147 3148 3149 3151 3152 3154 3157 3159 3161 3162 3163 3164 3165 3166 3167 3168 3170 3172 3174 3175 3176 3177 3179 3179 3180 3181 3181 3182 3183 3186 3188 3189 3188 3185 3184 3185 3187 3188 3190 3191 3192 3192 3193 3193 3192 3191 3191 3190 3190 3190 3190 3190 3190 3190 3191 3192 3192 3194 3195 3195 3196 3197 3197 3198 3198 3199 3199 3198 3198 3198 3197 3196
3136 3137 3138 3138 3139 3139 3139 3140 3141 3143 3143 3143 3144 3144 3145 3146 3147 3148 3150 3152 3154 3156 3157 3159 3160 3160 3160 3161 3163 3165 3167 3169 3170 3171 3172 3174 3175 3176 3177 3178 3178 3179 3180 3182 3183 3184 3184 3184 3184 3184 3184 3185 3186 3186 3187 3187 3188 3188 3187 3187 3186 3186 3186 3186 3186 3186 3186 3187 3188 3189 3189 3190 3191 3192 3192 3193 3193 3194 3195 3195 3194 3194 3193 3192 3191
3131 3133 3134 3134 3134 3134 3134 3136 3136 3137 3139 3139 3140 3141 3142 3142 3143 3144 3145 3148 3150 3151 3153 3155 3156 3156 3156 3157 3158 3159 3161 3164 3166 3167 3168 3169 3172 3173 3174 3175 3175 3175 3177 3178 3179 3180 3182 3183 3184 3183 3181 3180 3180 3180 3181 3182 3182 3183 3183 3183 3182 3182 3182 3182 3182 3182 3183 3184 3184 3184 3185 3186 3186 3187 3187 3188 3188 3189 3189 3190 3189 3189 3189 3187 3186
3126 3128 3129 3129 3129 3129 3130 3131 3131 3132 3134 3135 3136 3137 3138 3139 3139 3140 3141 3143 3145 3147 3148 3150 3151 3152 3153 3154 3154 3154 3156 3158 3160 3162 3163 3164 3167 3168 3170 3172 3172 3173 3175 3176 3175 3175 3177 3178 3179 3178 3177 3176 3175 3175 3176 3176 3177 3177 3178 3178 3178 3178 3178 3178 3178 3178 3179 3179 3180 3180 3181 3181 3182 3182 3182 3183 3183 3184 3184 3184 3184 3184 3183 3182 3181
3121 3123 3124 3124 3124 3125 3126 3127 3127 3127 3129 3129 3130 3132 3134 3135 3135 3136 3136 3138 3140 3142 3143 3144 3145 3146 3148 3149 3150 3150 3151 3153 3155 3156 3157 3159 3161 3163 3165 3167 3168 3170 3171 3171 3171 3172 3173 3173 3174 3174 3173 3172 3170 3169 3170 3171 3172 3172 3173 3173 3173 3173 3173 3173 3174 3174 3174 3175 3176 3176 3176 3176 3177 3177 3177 3178 3178 3179 3179 3179 3178 3178 3177 3177 3176
3116 3118 3118 3119 3119 3120 3121 3122 3122 3123 3124 3125 3126 3127 3128 3130 3132 3132 3133 3134 3135 3136 3138 3139 3139 3140 3141 3143 3145 3146 3147 3148 3149 3151 3152 3153 3155 3157 3159 3161 3162 3164 3166 3166 3167 3169 3170 3170 3170 3171 3170 3168 3165 3163 3164 3166 3167 3168 3168 3168 3168 3168 3169 3169 3170 3170 3170 3170 3171 3172 3172 3172 3172 3172 3172 3173 3173 3173 3174 3173 3173 3172 3172 3172 3171
3111 3112 3113 3114 3114 3115 3116 3117 3118 3118 3119 3120 3121 3122 3123 3125 3126 3128 3129 3130 3130 3131 3132 3133 3134 3135 3136 3137 3139 3141 3142 3143 3144 3146 3147 3148 3149 3151 3153 3155 3157 3159 3161 3163 3165 3166 3166 3165 3165 3165 3165 3162 3159 3158 3159 3161 3163 3164 3165 3164 3164 3164 3164 3164 3164 3165 3165 3166 3166 3167 3167 3167 3167 3167 3168 3168 3168 3168 3168 3168 3168 3167 3167 3167 3166
3106 3107 3108 3109 3109 3110 3111 3112 3113 3113 3114 3115 3116 3117 3118 3119 3121 3123 3124 3125 3126 3126 3127 3128 3129 3130 3131 3131 3133 3135 3137 3138 3139 3141 3142 3142 3143 3145 3147 3149 3151 3155 3157 3160 3161 3160 3160 3159 3159 3158 3157 3154 3152 3153 3155 3157 3159 3160 3161 3160 3160 3160 3160 3159 3159 3159 3159 3160 3160 3161 3161 3161 3161 3162 3162 3162 3161 3161 3161 3162 3162 3162 3162 3161 3162
3101 3102 3103 3104 3104 3105 3106 3107 3108 3108 3109 3110 3111 3112 3113 3114 3115 3117 3118 3120 3121 3122 3122 3122 3123 3125 3126 3126 3127 3129 3131 3133 3134 3136 3137 3137 3138 3139 3141 3142 3145 3149 3152 3154 3155 3155 3154 3153 3153 3152 3151 3149 3149 3150 3152 3154 3155 3157 3157 3156 3156 3156 3156 3156 3155 3154 3154 3154 3154 3155 3155 3155 3155 3156 3156 3156 3155 3155 3155 3155 3156 3156 3156 3156 3156
3096 3097 3098 3098 3099 3099 3100 3102 3103 3103 3104 3105 3106 3107 3108 3109 3110 3111 3113 3114 3116 3117 3118 3118 3118 3119 3121 3121 3122 3124 3126 3127 3128 3130 3131 3132 3132 3133 3134 3136 3138 3141 3144 3146 3148 3148 3147 3147 3147 3146 3146 3146 3146 3147 3148 3149 3151 3152 3153 3152 3152 3152 3152 3152 3151 3151 3150 3149 3149 3149 3150 3150 3150 3150 3150 3150 3150 3149 3149 3150 3150 3150 3150 3150 3150
3091 3092 3093 3093 3093 3094 3095 3096 3097 3098 3099 3100 3101 3102 3102 3104 3105 3106 3107 3109 3110 3111 3113 3113 3114 3114 3115 3115 3116 3118 3121 3122 3123 3124 3125 3126 3126 3127 3128 3129 3131 3133 3136 3139 3141 3141 3141 3142 3142 3141 3141 3141 3142 3142 3143 3145 3146 3147 3148 3148 3147 3147 3147 3147 3147 3146 3146 3146 3145 3145 3145 3145 3145 3145 3144 3144 3144 3144 3144 3144 3144 3144 3144 3144 3144
3086 3087 3087 3088 3089 3089 3090 3091 3092 3092 3093 3095 3096 3096 3097 3098 3099 3101 3102 3103 3104 3105 3106 3108 3109 3109 3108 3108 3109 3112 3114 3116 3117 3118 3119 3120 3121 3121 3122 3123 3125 3126 3129 3131 3133 3134 3134 3135 3136 3136 3136 3137 3137 3138 3139 3140 3141 3142 3143 3143 3143 3142 3142 3142 3141 3142 3142 3141 3141 3140 3140 3140 3140 3140 3139 3138 3138 3138 3138 3139 3138 3138 3139 3138 3137
3082 3082 3082 3083 3084 3084 3085 3085 3086 3087 3088 3089 3090 3091 3091 3092 3094 3095 3096 3097 3098 3099 3100 3101 3103 3103 3103 3102 3103 3106 3108 3109 3110 3111 3112 3114 3115 3116 3116 3117 3118 3120 3122 3124 3126 3127 3128 3129 3130 3130 3131 3132 3132 3133 3134 3135 3136 3137 3137 3138 3138 3138 3138 3137 3137 3137 3137 3136 3136 3136 3136 3135 3135 3135 3134 3133 3133 3133 3133 3133 3132 3132 3133 3133 3132
3077 3077 3078 3078 3079 3079 3080 3080 3081 3082 3082 3083 3084 3085 3086 3087 3088 3089 3091 3092 3093 3093 3094 3095 3096 3097 3097 3097 3098 3100 3101 3102 3104 3105 3106 3108 3109 3110 3110 3111 3112 3114 3115 3117 3119 3120 3121 3123 3124 3125 3126 3126 3127 3128 3128 3129 3130 3131 3131 3132 3132 3132 3133 3133 3133 3133 3132 3132 3131 3131 3131 3131 3131 3130 3129 3129 3129 3128 3128 3127 3127 3127 3127 3127 3126
3072 3073 3073 3073 3074 3074 3075 3076 3076 3077 3077 3078 3079 3079 3080 3081 3082 3084 3085 3086 3087 3088 3088 3089 3090 3090 3091 3092 3093 3094 3095 3096 3097 3099 3100 3101 3103 3104 3105 3106 3106 3107 3109 3110 3111 3113 3114 3116 3118 3119 3120 3121 3122 3122 3123 3124 3124 3124 3124 3124 3124 3125 3126 3128 3128 3128 3127 3127 3127 3126 3126 3126 3126 3125 3125 3124 3124 3123 3123 3122 3122 3122 3121 3121 3120
3068 3068 3068 3069 3069 3069 3070 3071 3071 3072 3072 3072 3073 3074 3074 3075 3076 3078 3079 3080 3081 3082 3082 3083 3083 3084 3085 3086 3088 3089 3089 3090 3091 3093 3094 3096 3097 3099 3101 3101 3101 3102 3103 3104 3106 3107 3109 3110 3112 3113 3114 3115 3115 3116 3116 3117 3118 3118 3118 3117 3117 3118 3119 3121 3122 3122 3122 3121 3120 3119 3119 3120 3120 3119 3119 3119 3119 3118 3118 3117 3116 3116 3115 3115 3115
3063 3063 3063 3064 3064 3065 3065 3066 3066 3067 3067 3067 3068 3068 3069 3070 3071 3072 3073 3074 3075 3076 3076 3077 3078 3078 3078 3080 3082 3083 3083 3084 3085 3087 3088 3090 3091 3093 3095 3096 3097 3097 3097 3098 3100 3102 3103 3105 3107 3108 3108 3109 3110 3110 3111 3111 3112 3112 3112 3112 3112 3112 3113 3114 3115 3116 3115 3114 3113 3112 3113 3114 3113 3112 3112 3112 3112 3112 3112 3111 3110 3110 3109 3109 3109
3059 3059 3059 3059 3060 3060 3061 3061 3061 3062 3062 3062 3063 3063 3064 3065 3065 3066 3067 3068 3069 3070 3070 3071 3072 3072 3072 3073 3075 3076 3077 3078 3079 3081 3082 3083 3084 3086 3089 3090 3090 3091 3092 3092 3094 3095 3096 3098 3100 3102 3102 3103 3104 3105 3105 3105 3106 3106 3106 3106 3107 3107 3107 3108 3109 3109 3108 3107 3106 3106 3106 3107 3106 3105 3106 3106 3106 3105 3105 3105 3104 3103 3103 3103 3102
3055 3054 3054 3054 3055 3055 3056 3056 3056 3057 3057 3057 3057 3058 3058 3059 3060 3060 3061 3062 3062 3064 3065 3065 3066 3066 3066 3067 3068 3070 3071 3072 3073 3074 3075 3077 3078 3080 3082 3083 3084 3085 3086 3087 3088 3089 3090 3091 3093 3095 3096 3097 3097 3098 3098 3099 3099 3100 3100 3100 3101 3101 3101 3101 3101 3102 3101 3100 3099 3099 3099 3099 3099 3098 3099 3100 3099 3098 3098 3099 3098 3096 3096 3096 3095
3050 3049 3049 3049 3050 3050 3050 3051 3051 3052 3052 3052 3052 3053 3053 3054 3054 3055 3055 3056 3057 3058 3059 3059 3060 3060 3061 3061 3062 3063 3064 3065 3066 3067 3068 3070 3071 3073 3074 3076 3077 3078 3079 3080 3081 3083 3083 3084 3086 3088 3089 3090 3090 3091 3091 3092 3092 3093 3093 3093 3094 3094 3095 3095 3095 3094 3094 3093 3093 3093 3093 3093 3092 3092 3092 3092 3091 3091 3091 3092 3091 3090 3089 3089 3089
3045 3045 3045 3044 3044 3044 3045 3045 3046 3046 3046 3047 3047 3047 3048 3048 3049 3049 3050 3050 3051 3052 3053 3054 3054 3055 3056 3056 3056 3057 3058 3058 3059 3060 3061 3062 3064 3066 3067 3069 3070 3071 3072 3073 3074 3076 3077 3078 3079 3081 3082 3083 3083 3084 3084 3084 3085 3085 3085 3086 3086 3086 3087 3088 3088 3087 3086 3086 3086 3085 3085 3085 3085 3085 3084 3083 3083 3083 3083 3084 3084 3083 3082 3082 3081
3040 3040 3040 3040 3039 3039 3039 3040 3040 3040 3041 3041 3042 3042 3043 3043 3044 3044 3044 3045 3046 3046 3047 3048 3048 3049 3050 3050 3051 3051 3052 3052 3053 3054 3055 3056 3057 3059 3060 3061 3062 3064 3065 3066 3067 3068 3070 3071 3072 3073 3074 3075 3076 3076 3076 3077 3077 3078 3078 3078 3078 3078 3079 3080 3080 3079 3078 3078 3078 3077 3077 3076 3075 3076 3076 3075 3074 3075 3075 3074 3074 3075 3075 3074 3073
3036 3035 3035 3035 3035 3034 3034 3034 3034 3035 3035 3036 3037 3037 3037 3038 3038 3039 3039 3040 3041 3041 3042 3042 3043 3044 3044 3045 3045 3045 3046 3047 3047 3048 3049 3050 3051 3052 3053 3054 3055 3056 3058 3059 3060 3061 3062 3064 3065 3066 3067 3067 3068 3068 3069 3069 3070 3070 3070 3071 3071 3071 3071 3071 3071 3071 3070 3070 3069 3069 3068 3067 3067 3066 3067 3066 3066 3066 3066 3066 3066 3066 3066 3066 3065
3031 3031 3030 3030 3030 3029 3029 3029 3029 3029 3030 3030 3031 3031 3032 3033 3033 3034 3034 3035 3036 3036 3037 3037 3038 3038 3039 3039 3039 3040 3040 3041 3041 3042 3043 3044 3044 3046 3047 3049 3050 3051 3052 3053 3054 3055 3055 3056 3057 3058 3059 3059 3059 3060 3061 3061 3062 3062 3062 3063 3063 3063 3063 3063 3063 3062 3062 3062 3061 3060 3060 3059 3058 3058 3058 3058 3057 3057 3057 3057 3057 3058 3058 3058 3057
3027 3026 3026 3025 3025 3024 3024 3024 3024 3024 3024 3025 3025 3026 3027 3027 3028 3029 3029 3030 3031 3031 3032 3032 3032 3033 3034 3034 3034 3034 3034 3035 3035 3036 3037 3038 3038 3039 3041 3043 3044 3045 3046 3047 3048 3049 3049 3049 3050 3050 3050 3051 3051 3052 3053 3053 3053 3054 3054 3054 3054 3054 3054 3054 3054 3054 3054 3053 3053 3052 3052 3051 3051 3050 3050 3050 3049 3049 3049 3049 3049 3050 3050 3050 3049